SCP
0 0 0 0 0 -0 -0 -0 0 0 0 0 0 0 0 0 -0 -0 -0 -0 -0 -0 -0 -0 -0 -0 -0 -0 -0 -0 -0 -0
0 0 0 -0 -0 -0 -0 0 0 0 0 0 -0 0 0 0 0 -0 -0 -0 -0 -0 -0 -0 -0 -0 -0 -0 -0 -0 -0 0
0 0 0 -0 -0 -0 -0 -0 0 0 0 0 -0 0 -0 0 0 -0 0 -0 -0 -0 -0 -0 -0 -0 -0 -0 -0 -0 -0 0
0 0 0 -0 -0 -0 -0 -0 -0 0 0 0 0 0 0 0 -0 -0 -0 -0 -0 -0 -0 -0 -0 -0 -0 -0 -0 -0 0 0
0 0 0 -0 -0 -0 -0 -0 0 0 -0 0 0 0 0 0 0 -0 -0 -0 -0 -0 -0 -0 -0 -0 -0 -0 -0 0 0 0
0 0 0 -0 -0 -0 -0 -0 0 0 -0 0 0 0 -0 -0 -0 -0 -0 0 0 -0 -0 -0 -0 -0 -0 -0 0 0 0 0
0 0 0 0 -0 -0 -0 0 0 0 -0 -0 -0 -0 -0 -0 -0 -0 -0 -0 -0 -0 -0 -0 -0 -0 -0 -0 -0 0 0 0
0 0 0 0 0 -0 -0 -0 -0 0 -0 -0 -0 -0 -0 -0 -0 -0 -0 -0 -0 -0 -0 -0 -0 -0 -0 -0 0 0 0 0
0 0 0 0 0 -0 -0 -0 -0 0 -0 -0 -0 -0 -0 -0 -0 -0 -0 -0 -0 -0 -0 -0 -0 0 0 0 0 0 0 0
0 0 0 0 0 0 -0 0 -0 0 -0 -0 -0 -0 -0 0 -0 -0 -0 -0 -0 -0 -0 -0 0 -0 0 0 0 0 0 0
0 0 0 0 0 -0 -0 0 0 -0 -0 -0 -0 -0 -0 0 -0 -0 -0 -0 -0 -0 -0 -0 -0 0 0 0 0 0 0 0
0 0 0 -0 0 0 -0 -0 0 0 -0 -0 -0 -0 -0 0 -0 -0 -0 -0 -0 -0 -0 -0 -0 0 0 0 0 0 0 0
0 0 0 0 0 -0 0 0 -0 0 0 -0 -0 -0 -0 -0 -0 -0 -0 -0 -0 -0 -0 0 0 0 0 0 0 0 0 0
0 0 0 0 0 0 0 0 -0 0 -0 0 -0 -0 -0 -0 0 0 -0 -0 0 0 0 0 0 0 0 0 0 0 0 0
0 0 0 0 0 0 0 -0 -0 -0 -0 -0 -0 -0 -0 0 0 0 -0 -0 -0 0 0 0 0 0 0 0 0 0 0 0
0 0 0 -0 -0 0 0 0 0 -0 -0 -0 -0 -0 0 0 0 0 -0 -0 0 0 0 0 0 0 0 0 0 0 0 0
0 0 0 -0 0 0 0 -0 -0 0 -0 -0 -0 0 0 -0 -0 0 0 -0 -0 0 0 0 0 0 0 0 0 0 0 0
0 0 0 0 0 0 0 0 0 -0 -0 -0 -0 0 0 -0 -0 0 0 0 0 0 0 0 0 0 0 0 0 0 0 0
0 0 0 0 0 0 0 0 0 -0 -0 0 -0 -0 0 0 0 0 0 0 0 0 0 0 0 0 0 0 0 0 0 0
0 0 0 0 0 0 0 0 0 0 0 0 0 -0 -0 0 0 0 0 0 0 0 0 0 0 0 0 0 0 0 0 0
Wind_Speed_500mb
3 4 7 1 8 3 2 5 10 8 3 4 6 11 28 41 39 45 49 53 50 46 41 36 32 29 27 24 20 17 16 14
3 9 3 4 6 11 7 10 6 12 8 3 11 29 30 33 35 44 46 50 49 46 42 37 33 29 27 24 21 18 15 14
3 4 4 7 8 12 10 3 4 13 13 12 31 30 30 30 36 39 44 47 47 45 41 36 32 30 28 25 21 18 16 15
6 7 4 8 14 12 8 5 5 6 19 15 16 25 34 31 34 37 38 43 45 42 36 33 31 28 26 24 20 18 16 15
5 6 6 3 10 20 5 9 9 13 8 5 27 32 30 33 35 36 37 39 41 38 35 31 31 29 27 23 21 21 19 17
5 4 5 4 7 11 7 4 8 16 3 6 30 39 34 37 37 37 36 36 35 34 33 33 33 30 26 25 23 21 20 19
6 9 2 5 8 6 6 9 7 10 3 14 45 43 38 39 39 39 37 34 33 34 34 33 31 28 28 26 23 22 21 21
6 10 7 6 11 12 8 13 14 15 6 25 47 46 45 45 43 41 38 37 34 34 33 32 32 29 28 27 26 25 24 23
9 20 12 9 10 12 12 19 10 25 32 42 50 48 41 38 34 32 32 34 29 32 32 33 34 32 31 29 27 26 25 24
9 12 9 10 5 10 26 11 7 17 24 39 45 48 42 43 45 44 37 28 27 31 33 32 34 31 29 28 27 27 27 27
23 21 20 12 22 21 32 34 17 7 23 36 41 44 45 46 45 46 39 35 30 31 33 36 35 33 28 28 30 30 30 31
19 24 13 9 11 11 17 30 39 28 27 29 38 49 53 57 53 45 39 41 34 31 35 35 33 33 33 33 31 31 32 35
14 7 6 13 10 20 24 3 26 44 33 29 41 51 58 54 60 42 42 44 42 38 38 38 35 35 35 33 33 34 35 36
6 2 3 9 13 18 15 28 34 35 50 44 47 56 57 55 58 52 47 46 48 47 46 43 41 40 39 37 37 37 38 38
4 7 9 6 18 31 11 13 36 47 48 53 50 61 64 62 57 57 50 47 48 53 50 48 48 45 46 44 40 39 42 41
10 7 6 13 30 33 32 29 47 53 48 48 49 47 59 62 59 56 52 50 47 52 57 54 52 51 48 48 45 42 43 42
14 13 10 12 25 30 26 21 26 42 51 44 48 40 60 63 59 58 54 57 59 59 58 59 58 57 54 49 46 42 41 41
22 8 9 18 30 21 11 9 9 25 36 39 37 52 58 59 57 55 52 50 49 46 45 55 54 51 50 46 42 39 36 35
17 16 11 12 15 9 2 8 5 15 29 31 40 46 53 51 57 51 45 41 35 31 37 45 44 41 39 34 31 31 32 32
14 7 8 4 10 5 10 19 11 17 22 28 34 37 44 44 42 39 37 30 25 28 30 32 29 29 27 26 27 30 28 34
Wind_Direction_500mb
30 73 21 90 217 239 278 248 202 175 83 146 154 163 152 153 165 167 176 178 177 175 176 178 180 182 186 184 181 179 175 169
356 15 94 270 296 223 227 207 196 161 154 197 187 153 153 165 174 179 179 181 181 181 184 186 186 189 192 194 193 191 181 176
9 341 282 249 235 214 229 285 208 192 157 157 142 154 160 163 167 177 181 183 184 187 188 190 193 195 200 201 199 196 188 186
341 342 301 257 210 238 209 190 108 220 162 149 178 169 161 168 172 174 181 182 186 188 191 196 199 204 205 205 203 200 197 193
292 302 297 257 206 238 278 163 182 178 194 255 164 163 163 170 175 176 181 183 185 187 192 199 204 207 208 209 207 206 204 202
236 305 279 252 234 259 243 203 146 160 252 205 186 166 169 174 177 178 182 185 184 189 195 201 204 207 211 211 210 211 212 212
217 199 269 239 261 236 211 193 186 171 245 268 174 167 168 174 181 182 187 189 192 195 199 204 207 208 209 211 215 220 222 220
224 206 256 269 247 288 255 201 220 155 135 167 173 175 175 177 180 188 193 195 197 201 203 207 208 210 213 216 219 225 227 227
233 226 258 283 254 235 260 274 208 183 165 171 180 183 187 190 193 196 196 198 199 202 204 208 212 212 215 219 225 230 231 232
253 249 221 246 239 248 231 239 80 154 183 181 191 192 196 201 204 204 204 202 200 202 207 211 218 218 221 226 229 233 237 235
253 272 253 260 250 253 256 235 222 145 185 202 211 211 210 208 211 213 213 215 215 211 207 213 216 220 222 229 233 237 240 241
277 266 239 255 267 205 261 250 235 231 207 213 219 212 218 219 215 214 214 222 222 219 213 220 224 221 221 227 237 243 245 246
230 232 233 182 234 230 234 281 234 229 230 227 228 218 217 220 225 211 220 225 223 225 225 223 226 228 226 233 240 246 248 249
132 192 145 239 258 272 249 231 239 238 233 234 238 225 224 224 230 230 230 234 236 234 234 231 228 229 232 235 245 248 250 253
225 43 141 267 290 278 286 246 246 234 233 231 232 230 228 231 233 237 241 248 241 242 245 240 233 233 235 240 247 250 251 254
248 174 300 269 267 284 293 280 252 241 227 224 229 228 229 235 239 240 244 248 244 246 245 241 237 235 236 238 245 246 248 250
275 271 279 269 278 283 311 295 241 231 222 220 226 220 227 232 238 241 245 251 252 250 250 239 237 232 234 239 243 243 246 248
291 238 268 302 290 288 269 272 251 239 231 223 215 224 227 230 238 242 248 249 254 254 247 236 235 239 238 242 240 241 241 246
269 313 263 294 264 246 237 304 301 250 240 230 220 224 229 229 233 239 238 240 245 244 230 227 233 234 231 228 225 231 244 261
266 285 286 15 285 268 328 304 210 216 227 229 219 215 223 220 222 219 218 217 211 207 208 213 219 222 229 236 238 252 262 274
Wind_Speed_850mb
3 4 7 1 8 3 2 5 10 8 3 4 6 11 28 41 39 45 49 53 50 46 41 36 32 29 27 24 20 17 16 14
3 9 3 4 6 11 7 10 6 12 8 3 11 29 30 33 35 44 46 50 49 46 42 37 33 29 27 24 21 18 15 14
3 4 4 7 8 12 10 3 4 13 13 12 31 30 30 30 36 39 44 47 47 45 41 36 32 30 28 25 21 18 16 15
6 7 4 8 14 12 8 5 5 6 19 15 16 25 34 31 34 37 38 43 45 42 36 33 31 28 26 24 20 18 16 15
5 6 6 3 10 20 5 9 9 13 8 5 27 32 30 33 35 36 37 39 41 38 35 31 31 29 27 23 21 21 19 17
5 4 5 4 7 11 7 4 8 16 3 6 30 39 34 37 37 37 36 36 35 34 33 33 33 30 26 25 23 21 20 19
6 9 2 5 8 6 6 9 7 10 3 14 45 43 38 39 39 39 37 34 33 34 34 33 31 28 28 26 23 22 21 21
6 10 7 6 11 12 8 13 14 15 6 25 47 46 45 45 43 41 38 37 34 34 33 32 32 29 28 27 26 25 24 23
9 20 12 9 10 12 12 19 10 25 32 42 50 48 41 38 34 32 32 34 29 32 32 33 34 32 31 29 27 26 25 24
9 12 9 10 5 10 26 11 7 17 24 39 45 48 42 43 45 44 37 28 27 31 33 32 34 31 29 28 27 27 27 27
23 21 20 12 22 21 32 34 17 7 23 36 41 44 45 46 45 46 39 35 30 31 33 36 35 33 28 28 30 30 30 31
19 24 13 9 11 11 17 30 39 28 27 29 38 49 53 57 53 45 39 41 34 31 35 35 33 33 33 33 31 31 32 35
14 7 6 13 10 20 24 3 26 44 33 29 41 51 58 54 60 42 42 44 42 38 38 38 35 35 35 33 33 34 35 36
6 2 3 9 13 18 15 28 34 35 50 44 47 56 57 55 58 52 47 46 48 47 46 43 41 40 39 37 37 37 38 38
4 7 9 6 18 31 11 13 36 47 48 53 50 61 64 62 57 57 50 47 48 53 50 48 48 45 46 44 40 39 42 41
10 7 6 13 30 33 32 29 47 53 48 48 49 47 59 62 59 56 52 50 47 52 57 54 52 51 48 48 45 42 43 42
14 13 10 12 25 30 26 21 26 42 51 44 48 40 60 63 59 58 54 57 59 59 58 59 58 57 54 49 46 42 41 41
22 8 9 18 30 21 11 9 9 25 36 39 37 52 58 59 57 55 52 50 49 46 45 55 54 51 50 46 42 39 36 35
17 16 11 12 15 9 2 8 5 15 29 31 40 46 53 51 57 51 45 41 35 31 37 45 44 41 39 34 31 31 32 32
14 7 8 4 10 5 10 19 11 17 22 28 34 37 44 44 42 39 37 30 25 28 30 32 29 29 27 26 27 30 28 34
Wind_Direction_850mb
30 73 21 90 217 239 278 248 202 175 83 146 154 163 152 153 165 167 176 178 177 175 176 178 180 182 186 184 181 179 175 169
356 15 94 270 296 223 227 207 196 161 154 197 187 153 153 165 174 179 179 181 181 181 184 186 186 189 192 194 193 191 181 176
9 341 282 249 235 214 229 285 208 192 157 157 142 154 160 163 167 177 181 183 184 187 188 190 193 195 200 201 199 196 188 186
341 342 301 257 210 238 209 190 108 220 162 149 178 169 161 168 172 174 181 182 186 188 191 196 199 204 205 205 203 200 197 193
292 302 297 257 206 238 278 163 182 178 194 255 164 163 163 170 175 176 181 183 185 187 192 199 204 207 208 209 207 206 204 202
236 305 279 252 234 259 243 203 146 160 252 205 186 166 169 174 177 178 182 185 184 189 195 201 204 207 211 211 210 211 212 212
217 199 269 239 261 236 211 193 186 171 245 268 174 167 168 174 181 182 187 189 192 195 199 204 207 208 209 211 215 220 222 220
224 206 256 269 247 288 255 201 220 155 135 167 173 175 175 177 180 188 193 195 197 201 203 207 208 210 213 216 219 225 227 227
233 226 258 283 254 235 260 274 208 183 165 171 180 183 187 190 193 196 196 198 199 202 204 208 212 212 215 219 225 230 231 232
253 249 221 246 239 248 231 239 80 154 183 181 191 192 196 201 204 204 204 202 200 202 207 211 218 218 221 226 229 233 237 235
253 272 253 260 250 253 256 235 222 145 185 202 211 211 210 208 211 213 213 215 215 211 207 213 216 220 222 229 233 237 240 241
277 266 239 255 267 205 261 250 235 231 207 213 219 212 218 219 215 214 214 222 222 219 213 220 224 221 221 227 237 243 245 246
230 232 233 182 234 230 234 281 234 229 230 227 228 218 217 220 225 211 220 225 223 225 225 223 226 228 226 233 240 246 248 249
132 192 145 239 258 272 249 231 239 238 233 234 238 225 224 224 230 230 230 234 236 234 234 231 228 229 232 235 245 248 250 253
225 43 141 267 290 278 286 246 246 234 233 231 232 230 228 231 233 237 241 248 241 242 245 240 233 233 235 240 247 250 251 254
248 174 300 269 267 284 293 280 252 241 227 224 229 228 229 235 239 240 244 248 244 246 245 241 237 235 236 238 245 246 248 250
275 271 279 269 278 283 311 295 241 231 222 220 226 220 227 232 238 241 245 251 252 250 250 239 237 232 234 239 243 243 246 248
291 238 268 302 290 288 269 272 251 239 231 223 215 224 227 230 238 242 248 249 254 254 247 236 235 239 238 242 240 241 241 246
269 313 263 294 264 246 237 304 301 250 240 230 220 224 229 229 233 239 238 240 245 244 230 227 233 234 231 228 225 231 244 261
266 285 286 15 285 268 328 304 210 216 227 229 219 215 223 220 222 219 218 217 211 207 208 213 219 222 229 236 238 252 262 274